Weather in Karatau

Kazakhstan     43°10′46″N   70°27′55″E
temp.,
°C
wind,
m/s
gust,
m/s
humid.,
%
clouds,
%
prec.,
mm/h
press.,
hPa
HPBL,
m
27 october, wed
wed2700:00+12ssw3337100 0.0 102241
03:00+12s3436100 0.0 102257
06:00+11ssw2338100 0.0 102329
09:00+12sw2336100 0.0 102362
12:00+16w4727100 0.0 10231150
15:00+15w71039100 0.0 10231236
18:00+14wnw3448100 0.0 1023106
21:00+11n2247100 0.0 102434
28 october, thu
thu2800:00+10nw2251100 0.0 102432
03:00+9nnw2356100 0.0 102439
06:00+8nnw2263100 0.0 102514
09:00+9sse1159100 0.0 102575
12:00+12ene114794 0.0 1025475
15:00+14se1243100 0.1 1023803
18:00+12w235698 0.3 1024106
21:00+9w3476100 1.8 1027268
29 october, fri
fri2900:00+10sw1169100 2.1 102669
03:00+10se1178100 0.3 1027100
06:00+9se2380100 0.3 1027103
09:00+9sse1179100 0.2 102897
12:00+10nw1178100 0.9 1028311
15:00+10nnw3373100 1.3 1029536
18:00+10ene116844 2.3 1030155
21:00+8se348634 0.1 1031147
30 october, sat
sat3000:00+7wnw11934 0.1 103110
03:00+6nne01940 0.0 103110
06:00+5ene11930 0.0 103210
09:00+7ese01880 0.0 103311
12:00+11ene11640 0.0 1032397
15:00+14ne21451 0.0 1030606
18:00+12ne22525 0.0 103025
21:00+10nw226299 0.0 103012
31 october, sun
sun3100:00+9nw1164100 0.0 102910
03:00+9nnw3367100 0.0 103063
06:00+9nw2271100 0.0 103028
09:00+9s2270100 0.1 103170
12:00+10sw685897 0.1 1031989
15:00+13wnw134657 0.0 10301380
18:00+11sse236124 0.0 103151
21:00+9n226496 0.0 103248